Regional Weather Roundup
Issued by NWS Grand Forks, ND

Home | Current Version | Previous Version | Text Only | Print | Product List | Glossary On
Versions: 1 2 3 4 5 6 7 8 9 10 11 12 13 14 15 16 17 18 19 20 21 22 23 24 25 26 27 28 29 30 31 32 33 34 35 36 37 38 39 40 41 42 43 44 45 46 47 48 49 50
000
ASUS43 KFGF 221010
RWRFGF
PRAIRIE TO PINES  WEATHER ROUNDUP
NATIONAL WEATHER SERVICE EASTERN NORTH DAKOTA/GRAND FORKS ND
400 AM CST WED NOV 22 2017

 **SATELLITE DATA USED TO AUGMENT SKY COVER AT AUTOMATED STATIONS**
 *****  WEATHER ACROSS EASTERN NORTH DAKOTA  *****

CITY           SKY/WX    TMP DP  RH WIND       PRES   REMARKS
GRAND FORKS    FAIR       8   4  83 SW8       30.23F WCI  -4
GRAND FRKS AFB FAIR       7   2  81 SW6       30.22F WCI  -3
GRAND FRKS NWS   N/A     10 N/A N/A W7          N/A  WCI   0
DEVILS LAKE    MOCLDY     9   5  84 S9        30.14F WCI  -4
FARGO          FAIR       9   5  84 S6        30.27F WCI  -1
WAHPETON ARPT  NOT AVBL
$$

 ***** WEATHER ACROSS CENTRAL AND WESTERN NORTH DAKOTA  *****

CITY           SKY/WX    TMP DP  RH WIND       PRES   REMARKS
BISMARCK       FAIR      13  10  88 SE7       30.14F WCI   3
MINOT          FAIR      11   6  81 SE7       30.04F WCI   0
JAMESTOWN      FAIR       6   3  87 S7        30.18F WCI  -6
MINOT AFB      FAIR      10   6  83 SE6       30.03F WCI   0
GARRISON         N/A     17  11  77 SE9       30.06F WCI   6
WILLISTON      CLOUDY    20   9  62 S6        29.95F WCI  12
DICKINSON      FAIR      23  13  65 S17       29.95F WCI   9
HETTINGER      FAIR      22  13  68 S8        30.05F WCI  12
$$

 *****  OTHER AIRPORT OBSERVATIONS IN OUR AREA  *****

CITY           SKY/WX    TMP DP  RH WIND       PRES   REMARKS
WALHALLA       FAIR       7   5  92 S6        30.17F WCI  -3
GRAFTON AIRPOR FAIR       7   3  85 SW12      30.23F WCI  -9
VALLEY CITY AR FAIR       5   3  92 S6        30.22F WCI  -6
CANDO          CLOUDY     9   7  92 S7        30.14F WCI  -3
CAVALIER APRT  FAIR       7   3  85 SW8       30.19F WCI  -6
GWINNER          N/A      5   1  85 S7        30.24F WCI  -7
ROLLA          CLOUDY     7   1  78 S13       30.07F WCI  -9
 ***** THE ABOVE OBSERVATIONS ARE NON NWS ARE NOT QUALITY
       CONTROLLED AND MAY MIS-REPORT RAIN FOR SNOW...
$$

  *****  WEATHER ACROSS NORTHERN MINNESOTA  *****

CITY           SKY/WX    TMP DP  RH WIND       PRES   REMARKS
FLAG ISLAND    FAIR       7   5  92 SW10      30.16F WCI  -8
WARROAD        FAIR       9   3  78 SW5       30.18F WCI   0
ROSEAU         FAIR      10   5  79 SW5       30.18F WCI   2
HALLOCK        FAIR       3   0  85 S7        30.19F WCI  -9
THF RVR FALLS  FAIR       8   5  87 S9        30.21F WCI  -5
BAUDETTE       FAIR       5   2  87 S6        30.18F WCI  -6
WASKISH        FAIR      10   9  92 SW3       30.21F
CROOKSTON      FAIR       9   7  92 SW7       30.25F WCI  -3
STEPHEN NDAWN    N/A      7   3  85 S7          N/A  WCI  -5
GREENBUSH NDAW   N/A      9   5  85 S7          N/A  WCI  -3
$$
  *****  WEATHER ACROSS CENTRAL AND WEST MINNESOTA  *****

CITY           SKY/WX    TMP DP  RH WIND       PRES   REMARKS
FOSSTON        FAIR       7   3  85 S6        30.23S WCI  -3
BEMIDJI        FAIR       8   5  89 SW6       30.21F WCI  -2
PARK RAPIDS    FAIR       8   4  83 S3        30.22F
ELBOW LAKE     FAIR       6   4  91 S8        30.29F WCI  -7
WADENA         FAIR       7   3  85 CALM      30.24F
DETROIT LAKES  FAIR      10   9  92 SW5       30.24F WCI   2
MOORHEAD       FAIR       7   1  78 CALM      30.27F
FERGUS FALLS   FAIR       9   5  85 CALM      30.31F
MORRIS MN      FAIR       9   5  85 S5        30.29F WCI   0
STAPLES        FAIR       9   7  92 CALM      30.26F
$$
  *****  WEATHER ELSEWHERE ACROSS MINNESOTA  *****

CITY           SKY/WX    TMP DP  RH WIND       PRES   REMARKS
DULUTH         FAIR      10   8  92 W6        30.22F WCI   0
INTRNTL FALLS    N/A      3  -1  83 SW3       30.20F
ELY            FLURRIES  10   9  92 SW5       30.19F WCI   2
CLOQUET        FAIR      12   9  85 CALM      30.24F
WHEATON        FAIR       9   5  85 S7        30.31F WCI  -3
BRAINERD       FAIR      11   7  84 SW3       30.27F
HIBBING        FAIR       7   4  87 S5        30.22S WCI  -2
ALEXANDRIA     FAIR      11   7  84 S5        30.27F WCI   3
SAINT CLOUD    FAIR      11   8  88 CALM      30.31F
MINNEAPOLIS    FAIR      15  10  80 W5        30.34F WCI   8
$$

  *****  WEATHER ACROSS SOUTH DAKOTA  *****

CITY           SKY/WX    TMP DP  RH WIND       PRES   REMARKS
SIOUX FALLS    FAIR      11   7  84 CALM      30.33F
BROOKINGS      FAIR      10   7  87 SE7       30.29F WCI  -1
WATERTOWN      FAIR       9   6  88 S6        30.24F WCI  -1
HURON          FAIR      14   8  77 S7        30.29F WCI   4
SISSETON         N/A      9   5  84 S8        30.27F WCI  -3
ABERDEEN       FAIR       4   1  88 S5        30.26F WCI  -5
MITCHELL       FAIR      14   9  80 S3        30.32F
PIERRE         FAIR      18  12  77 SE8       30.17F WCI   8
MOBRIDGE       FAIR      22  14  71 S12       30.14F WCI  10
RAPID CITY     FAIR      28  21  75 CALM      30.07F
$$

  *****  SOME WEATHER IN NEARBY STATES *****

CITY           SKY/WX    TMP DP  RH WIND       PRES   REMARKS
GLASGOW MT     MOCLDY    23  16  74 E10       29.84F WCI  12
GREAT FALLS MT FAIR      53  38  56 SW31G43   29.94F
CHEYENNE WY    MOCLDY    47  31  53 NW6       30.23S
SCOTTSBLUFF NE FAIR      32  26  78 CALM      30.18F
OMAHA NE       FAIR      18  10  71 CALM      30.40F
DES MOINES IA  FAIR      19  11  70 NW5       30.39F WCI  12
DAVENPORT IA   FAIR      18  13  80 NW7       30.37R WCI   9
CHICAGO IL     FAIR      25  15  66 NW8       30.28R WCI  16
EAU CLAIRE WI  FAIR      12   7  80 CALM      30.33S
LA CROSSE WI   FAIR      19  11  70 N6        30.34F WCI  11
$$

  *****  SOME NATIONAL WEATHER *****

CITY           SKY/WX    TMP DP  RH WIND       PRES   REMARKS
LA GUARDIA NY  CLOUDY    53  45  74 S5        29.93F
RALEIGH NC     MOCLDY    51  50  96 E3        29.94F
ATLANTA GA     FAIR      52  52 100 CALM      30.01S
NEW ORLEANS LA CLOUDY    60  52  74 NE7       30.04R
OKLAHOMA CITY  FAIR      31  14  49 NE14      30.39R WCI  21
ALBUQUERQUE NM FAIR      42  27  55 N12       30.38S
SALT LAKE CITY FAIR      46  39  76 SE7       30.39R
LOS ANGELES CA FAIR      68  39  34 CALM      30.03S
BOISE ID       CLOUDY    55  49  80 SE9       30.26R
SEATTLE WA     LGT RAIN  56  55  97 SE6       29.96R
$$

*** WEATHER ACROSS MANITOBA...SASKATCHEWAN AND ONTARIO ***
                ***ONTARIO***

CITY           SKY/WX    TMP DP  RH WIND       PRES   REMARKS
GERALDTON      CLOUDY    18  16  93 W7        30.04F WCI   8
THUNDER BAY    CLEAR     12  10  92 SW7       30.19F WCI   2
SIOUX LOOKOUT  MOCLDY    10   7  85 SW7       30.11F WCI   0
TORONTO        MOCLDY    34  25  69 NW14G22   30.00R WCI  24
BIG TROUT LK   FLURRIES  12   7  79 W16G29    29.90R WCI  -4
PICKLE LAKE    NOT AVBL
DRYDEN         MOCLDY     9   5  85 SW9       30.11F WCI  -5
KENORA         CLEAR      7   5  92 SW7       30.12F WCI  -5
$$
                *** MANITOBA***

CITY           SKY/WX    TMP DP  RH WIND       PRES   REMARKS
BRANDON        CLOUDY     3   0  85 SW7       30.08F WCI  -9
DAUPHIN        PTCLDY     7   1  78 W7        30.07F WCI  -5
ISLAND LAKE    PTCLDY     7   3  85 W9        30.01R WCI  -7
PILOT MOUND      N/A      7   3  85 S7          N/A  WCI  -5
THE PAS        PTCLDY     1  -4  78 S7        30.00F WCI -11
THOMPSON       CLOUDY     7   3  85 SW3       29.92F
WINNIPEG       PTCLDY     7   3  85 SW10      30.15F WCI  -8
LYNN LAKE      MOCLDY     5   3  92 SW6       29.83F WCI  -6
CHURCHILL      CLEAR      9   3  78 W14G21    29.73F WCI  -8
$$
                ***SASKATCHEWAN***

CITY           SKY/WX    TMP DP  RH WIND       PRES   REMARKS
ESTEVAN        CLOUDY    12   5  73 SE8       29.95F WCI   1
KINDERSLEY     PTCLDY    10   5  79 NE7       29.75F WCI   0
LLOYDMINSTER   LGT SNOW   3   1  92 E6        29.80F WCI  -8
PRINCE ALBERT  CRYSTALS   1  -6  71 SW5       29.96F WCI  -8
REGINA         FLURRIES  10   5  79 SE16      29.88F WCI  -7
YORKTON        CLOUDY     1  -2  85 SE6       29.97F WCI -10
N. BATTLEFORD  FLURRIES   3  -4  72 E7        29.89F WCI  -9
LA RONGE       FLURRIES   5   1  85 SW6       29.90F WCI  -6
SASKATOON      CLOUDY     5   0  78 E7        29.89F WCI  -7
SWIFT CURRENT  MOCLDY    28  21  74 S15G21    29.70F WCI  17
$$
NOTE: THESE ARE AUTOMATED STATIONS WITH LIMITED QUALITY CONTROL
      "FAIR" INDICATES FEW OR NO CLOUDS BELOW 12,000 FEET WITH NO
      SIGNIFICANT WEATHER AND/OR OBSTRUCTIONS TO VISIBILITY.
      SKY/WX - SKY CONDITION AND SIGNIFICANT WEATHER.
      TMP - AIR TEMPERATURE.    DP   - DEWPOINT TEMPERATURE.
      RH  - RELATIVE HUMIDITY.  PRES - PRESSURE.
      HX  - HEAT INDEX.         WCI  - WIND CHILL INDEX.
$



USA.gov is the U.S. government's official web portal to all federal, state and local government web resources and services.